Regional Weather Roundup
Issued by NWS Green Bay, WI

Home | Current Version | Previous Version | Graphics & Text | Print | Product List | Glossary Off
Versions: 1 2 3 4 5 6 7 8 9 10 11 12 13 14 15 16 17 18 19 20 21 22 23 24 25 26 27 28 29 30 31 32 33 34 35 36 37 38 39 40 41 42 43 44 45 46 47 48 49 50

000
ASUS43 KGRB 151710
RWRGRB

NORTH-CENTRAL AND NORTHEAST WISCONSIN REGIONAL WEATHER ROUNDUP
NATIONAL WEATHER SERVICE GREEN BAY WI
1200 PM CDT MON SEP 15 2014

WIZ005-009-010>012-018-019-151800-
NORTH CENTRAL WISCONSIN

CITY           SKY/WX    TMP DP  RH WIND       PRES   REMARKS
IRONWOOD       PTSUNNY   52  45  76 NW10      30.12S
MANITOWISH WTR CLOUDY    51  44  77 NW8       30.14S
ARBOR VITAE    MOSUNNY   57  47  70 N8        30.13F
EAGLE RIVER    PTSUNNY   53  40  62 NW8       30.12S
LAND O LAKES   MOSUNNY   54  44  67 NW7       30.13S
RHINELANDER      N/A     57  42  57 W10       30.13F
PHILLIPS       PTSUNNY   55  44  66 NW5       30.14S
ANTIGO         CLOUDY    55  43  65 NW8       30.13S
TOMAHAWK       PTSUNNY   55  43  63 W7        30.14S
MERRILL        CLOUDY    54  45  72 W8        30.14R
$$

WIZ013-073-151800-
NORTHEAST WISCONSIN

CITY           SKY/WX    TMP DP  RH WIND       PRES   REMARKS
IRON MOUNTAIN  PTSUNNY   59  41  51 W8        30.09S
MARINETTE      PTSUNNY   59  45  58 SW3       30.10S
OCONTO         PTSUNNY   58  46  64 W3        30.11F
$$

WIZ017-030-035>037-045-151800-
CENTRAL WISCONSIN

CITY           SKY/WX    TMP DP  RH WIND       PRES   REMARKS
MEDFORD        PTSUNNY   55  46  70 NW7       30.14S
WAUSAU         CLOUDY    56  43  61 W7        30.13S
MOSINEE        MOSUNNY   55  46  71 W6        30.15S
MARSHFIELD     CLOUDY    54  45  71 NW9       30.15R
WISC RAPIDS    LGT RAIN  52  50  93 W3        30.16S
STEVENS POINT  CLOUDY    52  47  84 CALM      30.15R
WAUPACA        DRIZZLE   56  51  85 S3        30.14F
SHAWANO        CLOUDY    59  46  63 SW3       30.12F
CLINTONVILLE   CLOUDY    54  45  71 SW3       30.13S
$$

WIZ038-039-048-051-151800-
FOX VALLEY

CITY           SKY/WX    TMP DP  RH WIND       PRES   REMARKS
NWS GREEN BAY  CLOUDY    55  48  77 CALM      30.13F
APPLETON       CLOUDY    54  50  87 NW6       30.14F
OSHKOSH        LGT RAIN  54  50  86 N7        30.14S
FOND DU LAC    LGT RAIN  54  48  80 N7        30.14S
$$

WIZ022-050-052-151800-
EAST CENTRAL WISCONSIN

CITY           SKY/WX    TMP DP  RH WIND       PRES   REMARKS
STURGEON BAY   CLOUDY    55  46  71 W7        30.13S
MANITOWOC      LGT RAIN  55  52  89 W3        30.14S
SHEBOYGAN      LGT RAIN  53  50  89 NW3       30.14R
$$

LMZ563-521-522-541>543-151800-
LAKESHORE

STATION/POSITION TIME  TEMP    WIND        PRES    VSBY  WAVE
                       AIR SEA DIR/SP/G                  HT/PER
                 (UTC) (F)     (DEG/KT/KT) (MB)    (MI)  (FT/S)
SHEBOYGAN LKSHOR 1700   52 48  340/  3/  3 1020.8S
KEWAUNEE LKSHORE 1700   55     290/  5/  7 1019.4F
NORTHPORT PIER   1700   55     320/  5/  6 1019.6S
N MID LAKE BUOY  1700   55 59  260/  4/  4 1019.7F         2/ 5
S GREEN BAY BUOY 1700   56     VRB  8/ 10  1020.8F
CHAMBERS ISLAND  1700   61     360/  2/  3 1020.0S
MENOMINEE LKSHOR 1700   55     120/  7/  8 1020.1F
$$



USA.gov is the U.S. government's official web portal to all federal, state and local government web resources and services.